This demonstration page uses our WeatherBlox Daily Observations layout. Learn more.

41.55636, -103.73856

Hourly Observations for July 25, 2019

Temp ( °F °C ) Dew Point ( °F °C ) Humidity (%) Winds ( mph kmh ) Pressure ( in mb ) Visibility ( mi km ) Precip ( " mm )
12:53 am 00:53 Mostly Clear 72 22.2 62 16.7 71 71 SSE 8 13 29.85 1011 10 16.09344 0 0
1:53 am 01:53 Mostly Cloudy 75 23.9 58 14.4 55 55 SW 10 17 29.83 1010 10 16.09344 0.001 0.001
2:53 am 02:53 Cloudy 76 24.4 57 13.9 52 52 WSW 14 22 29.83 1010 10 16.09344 0.001 0.001
3:53 am 03:53 Clear 73 22.8 59 15 62 62 NW 7 11 29.83 1010 10 16.09344 0.001 0.001
4:53 am 04:53 Clear 71 21.7 59 15 66 66 NW 8 13 29.83 1010 10 16.09344 0 0
5:53 am 05:53 Sunny 69 20.6 59 15 70 70 NW 9 15 29.85 1011 10 16.09344 0 0
6:53 am 06:53 Sunny 72 22.2 61 16.1 68 68 WNW 7 11 29.88 1012 10 16.09344 0 0
7:53 am 07:53 Sunny 73 22.8 61 16.1 66 66 WNW 8 13 29.91 1013 10 16.09344 0 0
8:53 am 08:53 Sunny 80 26.7 64 17.8 58 58 NW 10 17 29.91 1013 10 16.09344 0 0
9:53 am 09:53 Sunny 82 27.8 63 17.2 53 53 WNW 9 15 29.91 1013 10 16.09344 0 0
10:53 am 10:53 Sunny 86 30 62 16.7 45 45 N 8 13 29.91 1013 10 16.09344 0 0
11:53 am 11:53 Sunny 89 31.7 59 15 36 36 NNE 6 9 29.91 1013 10 16.09344 0 0
12:53 pm 12:53 Sunny 89 31.7 59 15 36 36 VRB 3 6 29.91 1013 10 16.09344 0 0
1:53 pm 13:53 Sunny 91 32.8 59 15 34 34 undefined N/A 29.88 1012 10 16.09344 0 0
2:53 pm 14:53 Sunny 90 32.2 58 14.4 34 34 VRB 7 11 29.88 1012 10 16.09344 0 0
3:53 pm 15:53 Sunny 91 32.8 58 14.4 33 33 SE 8 13 29.85 1011 10 16.09344 0 0
4:53 pm 16:53 Sunny 91 32.8 57 13.9 32 32 ESE 10 17 29.85 1011 10 16.09344 0 0
5:53 pm 17:53 Sunny 90 32.2 61 16.1 38 38 E 8 13 29.85 1011 10 16.09344 0 0
6:53 pm 18:53 Sunny 87 30.6 64 17.8 46 46 E 9 15 29.85 1011 10 16.09344 0 0
7:53 pm 19:53 Sunny 81 27.2 64 17.8 57 57 E 8 13 29.85 1011 10 16.09344 0 0
8:53 pm 20:53 Clear 74 23.3 64 17.8 71 71 E 6 9 29.88 1012 10 16.09344 0 0
9:53 pm 21:53 Clear 72 22.2 62 16.7 71 71 E 7 11 29.88 1012 10 16.09344 0 0
10:53 pm 22:53 Clear 70 21.1 62 16.7 76 76 E 8 13 29.88 1012 10 16.09344 0 0
11:53 pm 23:53 Clear 70 21.1 61 16.1 73 73 E 7 11 29.88 1012 10 16.09344 0 0

Powered by AerisWeather